Hourly Data Report for September 27, 2017

All times are specified in Local Standard Time (LST). Add 1 hour to adjust for Daylight Saving Time where and when it is observed.

COMOX A
BRITISH COLUMBIA

49°43'00.000" N
124°54'00.000" W
25.60 m
1021830
71893
YQQ

Download Data

Hourly Data (September 2017)
Hourly Data Report for September 27, 2017
Temp Definition
°C
Dew Point Temp Definition
°C
Rel Hum Definition
%
Wind Dir Definition
10's deg

Wind Spd Definition
km/h
Visibility Definition
km
Stn Press Definition
kPa
Hmdx Definition


Wind Chill Definition


Weather Definition


TIME
00:00 11.9 11.7 99   0 32.2 101.87     Clear
01:00 11.3 11.1 99   0 32.2 101.88     Clear
02:00 11.5 11.4 99   0 32.2 101.87     Clear
03:00 10.7 10.5 99   0 32.2 101.84     Clear
04:00 10.6 10.3 98 30 7 32.2 101.82     Clear
05:00 10.5 10.3 99   0 32.2 101.82     Clear
06:00 10.1 9.9 99   0 32.2 101.83     Mainly Clear
07:00 10.6 10.5 99   0 24.1 101.85     Mainly Clear
08:00 13.4 13.1 98 36 4 32.2 101.85     Mainly Clear
09:00 14.0 13.2 95 35 7 32.2 101.85     Mostly Cloudy
10:00 15.9 13.7 87 3 7 32.2 101.83     Mainly Clear
11:00 16.8 13.8 82 1 7 32.2 101.80     Mainly Clear
12:00 17.4 13.7 79 3 9 32.2 101.74     Mainly Clear
13:00 18.0 13.7 76 6 7 32.2 101.67     Clear
14:00 17.7 13.8 78 5 7 32.2 101.59     Clear
15:00 18.8 13.6 72 7 6 32.2 101.52     Clear
16:00 19.1 13.8 71 6 6 32.2 101.43     Clear
17:00 18.6 13.8 74   0 32.2 101.36     Clear
18:00 17.6 13.8 78   0 32.2 101.35     Clear
19:00 15.8 13.8 88   0 32.2 101.36     Clear
20:00 14.8 13.8 94   0 32.2 101.37     Clear
21:00 14.3 13.2 93   0 32.2 101.36     Clear
22:00 13.4 11.9 91   0 32.2 101.35     Clear
23:00 13.1 12.2 94   0 32.2 101.37     Clear

Notes on Data Quality.

Legend

  • E = Estimated
  • M = Missing
  • NA = Not Available
  • ‡ = Partner data that is not subject to review by the National Climate Archives
Date modified: